Location: Lucerne Valley
(34.4439°N, 116.9669°E)
Time: 19:53:31
(UTC-07:00)

ISS - Pass Details

Date: 13 October 2017
Orbit: 401 x 408 km, 51.6° (Epoch: 22 October)

Event Time Altitude Azimuth Distance (km) Brightness Sun altitude
Rises 04:59:31 0° 308° (NW) 2,322 0.9 -29.4°
Reaches altitude 10° 05:01:38 10° 304° (WNW) 1,460 -0.2 -29.8°
Enters shadow 05:02:03 13° 302° (WNW) 1,294 -0.5 -29.9°
